Date_and_time,latitude,longitude,wind_speed,RelWindDirFrom,WindDirFrom,air_pressure,air_temperature,relative_humidity,Temp,platform_speed_wrt_ground,air_pressure_at_mean_sea_level,platform_orientation
2019-07-23 00:00,50.6304383333333,-96.980755,5.6,9.6,283,994.26,27.1,33,22.79,0.0,1019.74,257.1
2019-07-23 00:10,50.630395,-96.98077,6.2,9.3,272,994.26,26.9,33,22.81,0.0,1019.75,257.1
2019-07-23 00:20,50.6304266666667,-96.98074,5.9,9.5,272,994.28,26.8,34,22.80,0.0,1019.78,257.1
2019-07-23 00:30,50.630435,-96.980745,5.3,7.8,264,994.35,26.6,35,22.85,0.0,1019.85,257.1
2019-07-23 00:40,50.6304383333333,-96.98074,5.4,9.1,259,994.35,26.6,35,22.92,0.0,1019.86,257.1
2019-07-23 00:50,50.6304483333333,-96.980755,5.0,7.4,260,994.36,26.5,36,23.11,0.0,1019.87,257.1
2019-07-23 01:00,50.6304466666667,-96.980755,4.9,7.8,259,994.36,26.3,37,23.06,0.0,1019.87,347.4
2019-07-23 01:10,50.6304466666667,-96.980755,4.5,7.0,246,994.32,26.0,39,23.01,0.0,1019.84,347.4
2019-07-23 01:20,50.63045,-96.9808266666667,4.3,6.5,249,994.31,25.7,41,22.97,0.0,1019.85,347.4
2019-07-23 01:30,50.630455,-96.98078,4.9,6.7,246,994.31,25.3,42,23.00,0.0,1019.88,347.4
2019-07-23 01:40,50.6304483333333,-96.9807666666667,4.5,6.3,246,994.36,25.0,42,22.92,0.0,1019.93,347.4
2019-07-23 01:50,50.6304583333333,-96.9807633333333,4.7,6.1,244,994.43,24.6,43,22.92,0.0,1020.03,347.4
2019-07-23 02:00,50.6304566666667,-96.9807666666667,4.6,6.2,242,994.44,24.2,44,22.95,0.0,1020.06,318.7
2019-07-23 02:10,50.6304533333333,-96.98077,4.2,5.6,241,994.41,23.9,45,22.98,0.0,1020.05,318.7
2019-07-23 02:20,50.6304533333333,-96.980775,4.4,5.7,238,994.37,23.4,47,22.99,0.0,1020.04,318.7
2019-07-23 02:30,50.6304516666667,-96.98077,4.6,6.1,241,994.31,23.0,47,23.00,0.0,1020.00,318.7
2019-07-23 02:40,50.63045,-96.9807733333333,4.5,6.5,245,994.32,22.7,49,23.02,0.0,1020.02,318.7
2019-07-23 02:50,50.63043,-96.9807483333333,4.5,5.8,240,994.38,22.3,50,23.02,0.0,1020.11,318.7
2019-07-23 03:00,50.6304533333333,-96.9807616666667,4.9,7.7,235,994.37,21.8,52,23.02,0.0,1020.14,38.0
2019-07-23 03:10,50.6304483333333,-96.9807616666667,5.3,7.0,243,994.33,21.7,51,23.01,0.0,1020.11,38.0
2019-07-23 03:20,50.63045,-96.9807616666667,5.4,7.6,241,994.37,21.4,53,22.99,0.0,1020.18,38.0
2019-07-23 03:30,50.6304483333333,-96.9807633333333,5.9,7.8,241,994.35,21.0,54,23.00,0.0,1020.19,38.0
2019-07-23 03:40,50.630445,-96.9807633333333,5.4,7.8,241,994.34,20.7,55,23.00,0.0,1020.21,38.0
2019-07-23 03:50,50.6304466666667,-96.9807616666667,5.7,7.5,244,994.37,20.5,56,22.97,0.0,1020.28,38.0
2019-07-23 04:00,50.6304466666667,-96.98076,5.3,7.3,246,994.42,20.2,57,22.96,0.0,1020.35,0.0
2019-07-23 04:10,50.6304466666667,-96.98076,6.0,8.6,245,994.43,20.0,57,22.97,0.0,1020.39,0.0
2019-07-23 04:20,50.6304466666667,-96.98076,5.9,8.0,244,994.48,19.8,59,23.01,0.0,1020.47,0.0
2019-07-23 04:30,50.630405,-96.9807716666667,6.3,8.5,244,994.50,19.5,60,23.01,0.0,1020.51,0.0
2019-07-23 04:40,50.6304433333333,-96.9807666666667,5.7,8.5,248,994.45,19.3,61,23.08,0.0,1020.49,0.0
2019-07-23 04:50,50.6304166666667,-96.9807433333333,5.5,7.7,251,994.42,19.2,62,23.13,0.0,1020.49,0.0
2019-07-23 05:00,50.6304366666667,-96.9807533333333,5.4,7.5,251,994.36,18.9,63,23.16,0.0,1020.44,147.5
2019-07-23 05:10,50.6304383333333,-96.9807566666667,6.0,8.0,249,994.39,18.7,65,23.15,0.0,1020.50,147.5
2019-07-23 05:20,50.6304416666667,-96.9807616666667,5.8,8.6,252,994.44,18.5,66,23.12,0.0,1020.57,147.5
2019-07-23 05:30,50.6304416666667,-96.9807616666667,6.1,9.1,252,994.48,18.4,67,23.08,0.0,1020.64,147.5
2019-07-23 05:40,50.630455,-96.9807616666667,5.9,8.5,253,994.52,18.3,68,23.06,0.0,1020.69,147.5
2019-07-23 05:50,50.63045,-96.9807633333333,6.4,8.4,252,994.60,18.2,70,23.04,0.0,1020.79,147.5
2019-07-23 06:00,50.6304483333333,-96.9807583333333,6.4,9.0,253,994.57,18.1,70,23.02,0.0,1020.77,142.0
2019-07-23 06:10,50.63045,-96.9807566666667,6.7,9.7,252,994.55,18.1,71,22.99,0.0,1020.76,142.0
2019-07-23 06:20,50.63045,-96.9807566666667,6.7,10.1,250,994.55,18.1,71,22.98,0.0,1020.77,142.0
2019-07-23 06:30,50.6304483333333,-96.9807566666667,7.2,10.2,252,994.54,18.1,71,22.97,0.0,1020.78,142.0
2019-07-23 06:40,50.6304466666667,-96.9807566666667,6.8,11.0,253,994.51,18.1,71,22.96,0.0,1020.75,142.0
2019-07-23 06:50,50.63044,-96.9807433333333,6.5,8.7,254,994.50,17.9,71,22.96,0.0,1020.76,142.0
2019-07-23 07:00,50.6304466666667,-96.98079,6.3,9.4,252,994.53,17.8,72,22.95,0.0,1020.81,270.0
2019-07-23 07:10,50.6304433333333,-96.9807633333333,6.8,9.4,255,994.54,17.7,73,22.93,0.0,1020.83,270.0
2019-07-23 07:20,50.630445,-96.98076,6.5,9.5,255,994.53,17.7,73,22.90,0.0,1020.82,270.0
2019-07-23 07:30,50.630445,-96.9807616666667,6.3,8.6,255,994.55,17.7,73,22.86,0.0,1020.85,270.0
2019-07-23 07:40,50.6304433333333,-96.9807616666667,6.7,9.0,251,994.59,17.8,74,22.84,0.0,1020.89,270.0
2019-07-23 07:50,50.630445,-96.9807616666667,6.6,9.6,250,994.65,17.6,76,22.82,0.0,1020.97,270.0
2019-07-23 08:00,50.630445,-96.9807616666667,6.7,9.2,251,994.68,17.5,76,22.81,0.0,1021.00,311.7
2019-07-23 08:10,50.630445,-96.98076,6.6,9.0,250,994.72,17.6,77,22.80,0.0,1021.04,311.7
2019-07-23 08:20,50.630445,-96.98076,6.8,9.6,250,994.79,17.6,78,22.78,0.0,1021.11,311.7
2019-07-23 08:30,50.6304583333333,-96.9807633333333,6.8,10.6,254,994.76,17.7,78,22.77,0.0,1021.07,311.7
2019-07-23 08:40,50.63045,-96.9807566666667,6.5,9.1,254,994.73,17.7,79,22.76,0.0,1021.05,311.7
2019-07-23 08:50,50.6304483333333,-96.980755,6.8,8.9,252,994.69,17.7,79,22.75,0.0,1021.01,311.7
2019-07-23 09:00,50.6304483333333,-96.9807566666667,6.3,8.5,252,994.62,17.6,81,22.74,0.0,1020.95,0.0
2019-07-23 09:10,50.6304133333333,-96.980735,6.6,9.2,253,994.57,17.5,82,22.72,0.0,1020.91,0.0
2019-07-23 09:20,50.6304533333333,-96.9807583333333,6.3,8.9,255,994.54,17.4,83,22.69,0.0,1020.88,0.0
2019-07-23 09:30,50.6304583333333,-96.980755,6.6,9.7,256,994.56,17.3,84,22.68,0.0,1020.90,0.0
2019-07-23 09:40,50.630465,-96.98076,7.2,10.1,257,994.59,17.4,85,22.66,0.0,1020.94,0.0
2019-07-23 09:50,50.630455,-96.980765,6.8,9.2,256,994.59,17.4,85,22.66,0.0,1020.93,0.0
2019-07-23 10:00,50.630455,-96.9807633333333,6.5,9.4,258,994.62,17.3,86,22.65,0.0,1020.97,73.2
2019-07-23 10:10,50.630455,-96.9807633333333,7.0,9.5,261,994.63,17.4,86,22.63,0.0,1020.97,73.2
2019-07-23 10:20,50.6304533333333,-96.9807616666667,6.2,8.7,257,994.68,17.4,86,22.62,0.0,1021.03,73.2
2019-07-23 10:30,50.6304533333333,-96.98076,6.4,8.9,255,994.78,17.2,87,22.60,0.0,1021.13,73.2
2019-07-23 10:40,50.6304533333333,-96.98076,6.7,8.8,258,994.82,17.2,87,22.59,0.0,1021.17,73.2
2019-07-23 10:50,50.6304583333333,-96.98076,6.7,8.9,259,994.85,17.3,87,22.57,0.0,1021.21,73.2
2019-07-23 11:00,50.630445,-96.9807683333333,6.7,9.6,258,994.86,17.2,87,22.55,0.0,1021.23,270.0
2019-07-23 11:10,50.63045,-96.9807716666667,7.1,9.3,259,994.90,17.2,88,22.56,0.0,1021.27,270.0
2019-07-23 11:20,50.63045,-96.9807683333333,6.8,9.3,261,994.96,17.4,87,22.58,0.0,1021.32,270.0
2019-07-23 11:30,50.6304533333333,-96.980765,6.1,8.4,260,995.01,17.5,86,22.59,0.0,1021.38,270.0
2019-07-23 11:40,50.630425,-96.9807783333333,6.3,8.9,254,995.09,17.5,86,22.58,0.0,1021.45,270.0
2019-07-23 11:50,50.6304533333333,-96.9807766666667,6.6,8.6,255,995.10,17.5,86,22.59,0.0,1021.47,270.0
2019-07-23 12:00,50.6304416666667,-96.98076,6.8,8.9,256,995.11,17.7,85,22.55,0.0,1021.46,360.0
2019-07-23 12:10,50.630445,-96.9807416666667,6.4,8.6,260,995.08,18.0,84,22.48,0.0,1021.42,360.0
2019-07-23 12:20,50.6304433333333,-96.980745,6.7,8.8,257,995.13,18.1,84,22.42,0.0,1021.47,360.0
2019-07-23 12:30,50.6304583333333,-96.9807733333333,6.2,8.3,260,995.15,18.3,83,22.41,0.0,1021.49,360.0
2019-07-23 12:40,50.630105,-96.9807383333333,6.2,8.1,260,995.17,18.7,82,22.41,0.1,1021.48,360.0
2019-07-23 12:50,50.634955,-96.96733,5.0,11.3,297,995.16,19.3,81,22.32,3.5,1021.46,360.0
2019-07-23 13:00,50.6601416666667,-96.9409733333333,10.2,12.5,341,995.08,19.6,79,22.41,10.9,1021.35,40.4
2019-07-23 13:10,50.6852016666667,-96.91426,10.5,13.2,341,995.08,20.4,76,22.52,10.9,1021.31,40.4
2019-07-23 13:20,50.7109666666667,-96.889495,11.7,14.4,344,995.05,20.6,76,22.54,10.9,1021.27,40.4
2019-07-23 13:30,50.736455,-96.8638816666667,12.4,14.3,345,995.05,21.0,74,22.49,10.9,1021.25,40.4
2019-07-23 13:40,50.7620716666667,-96.8385366666667,13.2,15.8,340,995.07,21.5,70,22.46,10.9,1021.25,40.4
2019-07-23 13:50,50.7878716666667,-96.8134333333333,13.9,16.6,339,995.01,21.6,70,22.44,10.9,1021.18,40.4
2019-07-23 14:00,50.8134566666667,-96.7878866666667,13.2,15.0,341,994.98,21.4,72,22.43,10.9,1021.13,33.6
2019-07-23 14:10,50.838745,-96.761765,13.6,16.5,336,995.06,21.4,73,22.41,10.9,1021.21,33.6
2019-07-23 14:20,50.8641983333333,-96.736055,12.8,15.6,338,994.96,21.1,77,22.43,10.9,1021.11,33.6
2019-07-23 14:30,50.8897516666667,-96.710835,12.5,14.9,346,994.70,21.2,77,22.40,10.8,1020.82,33.6
2019-07-23 14:40,50.9152583333333,-96.6851766666667,12.3,14.6,342,994.71,21.4,76,22.48,10.9,1020.80,33.6
2019-07-23 14:50,50.9408683333333,-96.6597866666667,12.2,14.9,340,994.69,21.3,77,22.53,10.9,1020.77,33.6
2019-07-23 15:00,50.967075,-96.6358616666667,10.8,13.7,344,994.61,21.3,80,22.49,10.9,1020.65,32.8
2019-07-23 15:10,50.9917583333333,-96.6130933333333,9.5,11.6,359,994.53,21.7,77,22.40,10.3,1020.54,32.8
2019-07-23 15:20,50.9981566666667,-96.6068983333333,2.6,4.5,331,994.71,22.1,72,22.39,2.7,1020.69,32.8
2019-07-23 15:30,51.003545,-96.60086,1.5,2.2,25,994.72,22.6,71,22.42,2.4,1020.66,32.8
2019-07-23 15:40,51.0089783333333,-96.5948466666667,0.3,1.1,38,994.74,23.2,66,22.45,2.4,1020.65,32.8
2019-07-23 15:50,51.020795,-96.5841683333333,2.3,6.0,18,994.71,23.1,69,22.45,4.9,1020.63,32.8
2019-07-23 16:00,51.0218266666667,-96.5829033333333,3.1,4.5,258,994.69,22.5,69,22.42,0.5,1020.64,31.9
2019-07-23 16:10,51.0220483333333,-96.5828,4.1,5.3,257,994.62,22.8,70,22.54,0.1,1020.56,31.9
2019-07-23 16:20,51.0220216666667,-96.5828,4.1,4.8,264,994.61,23.1,71,22.64,0.0,1020.53,31.9
2019-07-23 16:30,51.02202,-96.582805,3.0,3.8,267,994.62,23.5,67,22.58,0.0,1020.52,31.9
2019-07-23 16:40,51.022155,-96.5828933333333,3.0,4.8,218,994.60,23.7,68,22.60,0.1,1020.49,31.9
2019-07-23 16:50,51.0221783333333,-96.5829466666667,5.4,6.6,189,994.54,23.1,77,22.67,0.0,1020.46,31.9
2019-07-23 17:00,51.02214,-96.5828666666667,4.5,6.0,206,994.48,23.1,76,22.61,0.0,1020.38,31.7
2019-07-23 17:10,51.0221433333333,-96.5828716666667,5.1,5.8,216,994.41,23.3,74,22.52,0.0,1020.29,31.7
2019-07-23 17:20,51.0216966666667,-96.58355,5.1,8.1,202,994.28,23.5,71,22.47,0.2,1020.12,31.7
2019-07-23 17:30,51.0432383333333,-96.560245,4.2,9.7,67,994.26,23.5,71,22.61,9.4,1020.07,31.7
2019-07-23 17:40,51.06847,-96.5335533333333,4.6,6.5,57,994.26,23.4,74,22.57,10.9,1020.08,31.7
2019-07-23 17:50,51.092635,-96.506485,4.5,8.0,63,994.15,23.4,76,22.68,10.6,1019.99,31.7
2019-07-23 18:00,51.11231,-96.4697916666667,5.3,8.3,81,994.04,23.5,76,22.80,10.9,1019.86,35.6
2019-07-23 18:10,51.1217466666667,-96.453655,4.6,8.1,173,993.99,24.5,73,23.15,5.0,1019.75,35.6
2019-07-23 18:20,51.1261166666667,-96.4438833333333,6.4,8.1,187,993.91,26.1,68,23.27,2.7,1019.59,35.6
2019-07-23 18:30,51.1313033333333,-96.4350083333333,7.5,8.3,193,993.88,27.3,60,23.31,2.7,1019.50,35.6
2019-07-23 18:40,51.1390716666667,-96.4257533333333,6.2,7.9,200,993.82,29.0,57,23.36,3.5,1019.38,35.6
2019-07-23 18:50,51.1418366666667,-96.420865,8.0,10.1,206,993.68,26.3,68,23.45,1.5,1019.36,35.6
2019-07-23 19:00,51.1418166666667,-96.4207366666667,9.1,10.5,208,993.56,24.1,74,23.38,0.0,1019.33,40.3
2019-07-23 19:10,51.141835,-96.420825,9.3,10.7,206,993.53,24.0,76,23.45,0.0,1019.29,40.3
2019-07-23 19:20,51.1417883333333,-96.4207016666667,9.8,11.3,203,993.50,23.9,79,23.58,0.0,1019.25,40.3
2019-07-23 19:30,51.141845,-96.4208216666667,10.0,11.3,201,993.43,23.8,80,23.64,0.0,1019.20,40.3
2019-07-23 19:40,51.1418066666667,-96.42078,10.9,12.3,205,993.36,23.8,79,23.62,0.0,1019.13,40.3
2019-07-23 19:50,51.141815,-96.42077,10.5,11.8,208,993.32,23.8,79,23.63,0.0,1019.08,40.3
2019-07-23 20:00,51.14186,-96.4208133333333,11.2,13.0,208,993.24,23.9,78,23.65,0.0,1018.95,40.3
2019-07-23 20:10,51.141825,-96.4208316666667,11.0,11.8,204,993.21,24.0,79,23.64,0.0,1018.84,40.3
2019-07-23 20:20,51.1418083333333,-96.4207283333333,10.4,12.1,208,993.14,24.2,78,23.68,0.0,1018.72,40.3
2019-07-23 20:30,51.1418433333333,-96.4207766666667,10.3,11.8,207,993.04,24.2,78,23.67,0.0,1018.54,40.3
2019-07-23 20:40,51.1418,-96.42071,9.7,10.7,209,993.01,24.3,80,23.69,0.0,1018.62,40.3
2019-07-23 20:50,51.1405816666667,-96.4342366666667,11.9,18.0,216,992.78,24.3,82,23.67,3.1,1018.48,40.3
2019-07-23 21:00,51.139935,-96.4814083333333,15.3,18.0,235,992.50,24.2,84,23.69,10.7,1018.20,345.2
2019-07-23 21:10,51.1386533333333,-96.52862,14.1,16.6,233,992.49,24.4,82,23.79,10.7,1018.18,345.2
2019-07-23 21:20,51.136905,-96.56752,11.9,16.1,223,992.55,24.4,80,23.90,8.8,1018.25,345.2
2019-07-23 21:30,51.1366366666667,-96.578075,11.4,13.1,199,992.68,24.6,75,23.96,2.4,1018.37,345.2
2019-07-23 21:40,51.1358666666667,-96.588635,12.0,13.9,196,992.54,24.7,74,23.97,2.4,1018.22,345.2
2019-07-23 21:50,51.1352783333333,-96.5992183333333,13.3,15.2,196,992.42,24.5,77,23.88,2.4,1018.10,345.2
2019-07-23 22:00,51.1330433333333,-96.6202816666667,14.3,19.0,205,992.11,24.6,73,23.80,4.8,1017.78,266.1
2019-07-23 22:10,51.13347,-96.619905,11.8,14.6,198,992.07,24.8,72,23.77,0.2,1017.72,266.1
2019-07-23 22:20,51.13347,-96.6199066666667,11.6,14.6,197,992.02,24.7,74,23.63,0.0,1017.67,266.1
2019-07-23 22:30,51.1334866666667,-96.61996,12.7,15.4,200,991.91,24.6,76,23.79,0.0,1017.56,266.1
2019-07-23 22:40,51.1335316666667,-96.6200233333333,12.4,13.6,204,991.87,24.6,73,23.77,0.0,1017.52,266.1
2019-07-23 22:50,51.13351,-96.6200316666667,12.5,14.1,205,991.75,24.8,69,23.72,0.0,1017.39,266.1
2019-07-23 23:00,51.13351,-96.62004,13.0,14.7,204,991.70,24.9,67,23.70,0.0,1017.33,266.3
2019-07-23 23:10,51.1334783333333,-96.6199983333333,13.6,15.4,203,991.66,24.8,67,23.65,0.0,1017.29,266.3
2019-07-23 23:20,51.1334683333333,-96.6199366666667,14.0,16.1,208,991.56,25.1,63,23.59,0.0,1017.17,266.3
2019-07-23 23:30,51.1333666666667,-96.6199483333333,13.3,15.1,206,991.49,25.2,63,23.55,0.0,1017.09,266.3
2019-07-23 23:40,51.1515083333333,-96.6121183333333,6.1,16.1,202,991.61,25.3,63,23.47,6.8,1017.21,266.3
